Eastover, SC

4:22 AM EDT on March 27, 2017 (GMT -0400)
McEntire Angs

Weather History for KMMT - January, 2013

Change the Weather History Date:

Tuesday, January 8, 2013

  Actual Average Record
Temperature  
Mean Temperature 46 °F -  
Max Temperature 57 °F 55 °F 73 °F (2005)
Min Temperature 36 °F 33 °F 14 °F (2014)
Degree Days  
Heating Degree Days 18    
Moisture  
Dew Point 38 °F    
Average Humidity 68    
Maximum Humidity 83    
Minimum Humidity 54    
Precipitation  
Precipitation 0.00 in - - ()
Sea Level Pressure  
Sea Level Pressure 30.38 in    
Wind  
Wind Speed 5 mph (NE)    
Max Wind Speed 10 mph    
Max Gust Speed -    
Visibility 10 miles    
Events      
Averages and records for this station are not official NWS values.
T = Trace of Precipitation, MM = Missing Value Source: NWS Daily Summary

Daily Weather History Graph

Daily Weather History Graph

Search for Another Location

Airport or City:

Trip Planner

Search our weather history database for the weather conditions in past years. The results will help you decide how hot, cold, wet, or windy it might be!

Date:

Astronomy

Jan. 08, 2013 Rise Set
Actual Time 7:29 AM EST 5:31 PM EST
Civil Twilight 7:01 AM EST 5:58 PM EST
Nautical Twilight 6:30 AM EST 6:29 PM EST
Astronomical Twilight 6:00 AM EST 6:59 PM EST
Moon 4:01 AM EST (1/8) 2:31 PM EST (1/8)
Length of Visible Light 10h 56m
Length of Day
10h 02m
Waning Crescent, 14% of the Moon is Illuminated
Jan 8
Waning Crescent
Jan 11
New
Jan 18
First Quarter
Jan 26
Full
Feb 3
Last Quarter

Hourly Weather History & Observations

Time (EST) Temp. Windchill Dew Point Humidity Pressure Visibility Wind Dir Wind Speed Gust Speed Precip Events Conditions
12:55 AM 36.7 °F 34.1 °F 31.8 °F 83% 30.39 in 10.0 mi NE 3.5 mph - N/A   Mostly Cloudy
1:44 AM 41.0 °F 37.1 °F 33.8 °F 76% 30.38 in 10.0 mi NE 5.8 mph - N/A   Mostly Cloudy
1:55 AM 40.5 °F 36.5 °F 33.1 °F 75% 30.38 in 10.0 mi NE 5.8 mph - N/A   Mostly Cloudy
2:01 AM 41.0 °F 36.4 °F 33.8 °F 76% 30.38 in 10.0 mi NE 6.9 mph - N/A   Overcast
2:13 AM 41.0 °F 37.1 °F 33.8 °F 76% 30.38 in 10.0 mi NNE 5.8 mph - N/A   Overcast
2:55 AM 41.2 °F 36.6 °F 33.8 °F 75% 30.37 in 10.0 mi NE 6.9 mph - N/A   Overcast
3:25 AM 41.0 °F 39.0 °F 33.8 °F 76% 30.37 in 10.0 mi NE 3.5 mph - N/A   Overcast
3:55 AM 41.2 °F 38.2 °F 34.3 °F 77% 30.37 in 10.0 mi NE 4.6 mph - N/A   Overcast
4:55 AM 41.5 °F - 34.7 °F 77% 30.37 in 10.0 mi Calm Calm - N/A   Overcast
5:55 AM 42.3 °F 40.5 °F 35.1 °F 76% 30.37 in 10.0 mi NE 3.5 mph - N/A   Overcast
6:55 AM 43.5 °F 39.4 °F 34.7 °F 71% 30.39 in 10.0 mi NE 6.9 mph - N/A   Overcast
7:55 AM 44.6 °F 40.7 °F 34.3 °F 67% 30.41 in 10.0 mi NE 6.9 mph - N/A   Mostly Cloudy
8:55 AM 45.1 °F 40.3 °F 34.3 °F 66% 30.41 in 10.0 mi ENE 9.2 mph - N/A   Mostly Cloudy
9:19 AM 46.4 °F 41.5 °F 35.6 °F 66% 30.42 in 10.0 mi ENE 10.4 mph - N/A   Mostly Cloudy
9:55 AM 49.8 °F - 35.6 °F 58% 30.42 in 10.0 mi ENE 8.1 mph - N/A   Mostly Cloudy
10:55 AM 52.7 °F - 37.2 °F 56% 30.43 in 10.0 mi ENE 6.9 mph - N/A   Mostly Cloudy
11:55 AM 54.7 °F - 38.5 °F 54% 30.41 in 10.0 mi NE 5.8 mph - N/A   Mostly Cloudy
12:55 PM 56.5 °F - 40.8 °F 56% 30.38 in 10.0 mi East 6.9 mph - N/A   Overcast
1:26 PM 57.2 °F - 41.0 °F 55% 30.37 in 10.0 mi NNE 3.5 mph - N/A   Mostly Cloudy
1:55 PM 57.0 °F - 41.5 °F 56% 30.36 in 10.0 mi ENE 3.5 mph - N/A   Mostly Cloudy
2:55 PM 57.7 °F - 42.1 °F 56% 30.35 in 10.0 mi NNE 3.5 mph - N/A   Mostly Cloudy
3:55 PM 57.7 °F - 43.0 °F 58% 30.35 in 10.0 mi ENE 4.6 mph - N/A   Overcast
4:55 PM 57.6 °F - 43.0 °F 58% 30.35 in 10.0 mi Calm Calm - N/A   Mostly Cloudy
5:55 PM 54.9 °F - 43.5 °F 66% 30.35 in 10.0 mi Calm Calm - N/A   Mostly Cloudy
6:55 PM 51.3 °F - 43.7 °F 75% 30.38 in 10.0 mi NE 4.6 mph - N/A   Mostly Cloudy
7:55 PM 54.1 °F - 43.9 °F 68% 30.38 in 10.0 mi NNE 3.5 mph - N/A   Overcast
8:55 PM 54.5 °F - 43.3 °F 66% 30.39 in 10.0 mi NNE 3.5 mph - N/A   Overcast
9:55 PM 53.2 °F - 43.2 °F 69% 30.38 in 10.0 mi NE 3.5 mph - N/A   Mostly Cloudy
10:55 PM 52.5 °F - 43.2 °F 70% 30.39 in 10.0 mi NE 3.5 mph - N/A   Mostly Cloudy
11:55 PM 51.8 °F - 43.2 °F 72% 30.38 in 10.0 mi ENE 5.8 mph - N/A   Clear